DW9210 Weather Reports


time (UTC)temp
F
wind
direction
speed
knots
gust
knots
rain 1hr
in
rain 24hr
in
rain mn
in
humidity
%
barometer
mb
20260510101503 53 200 0.0 0.9 0.00 0.00 0.00 93 1011.2
20260510101024 53 198 0.0 0.9 0.00 0.00 0.00 93 1011.2
20260510100503 53 188 0.0 0.9 0.00 0.00 0.00 94 1011.2
20260510100003 53 181 0.0 0.9 0.00 0.00 0.00 94 1011.1
20260510095503 53 185 0.0 1.7 0.00 0.00 0.00 93 1011.0
20260510095003 53 184 0.0 1.7 0.00 0.00 0.00 93 1011.0
20260510094503 53 191 0.0 0.9 0.00 0.00 0.00 93 1011.0
20260510094003 53 209 0.0 0.9 0.00 0.00 0.00 94 1010.9
20260510093524 53 235 0.0 0.9 0.00 0.00 0.00 93 1010.9
20260510093003 53 0 0.0 0.0 0.00 0.00 0.00 93 1010.8
20260510092524 53 0 0.0 0.0 0.00 0.00 0.00 94 1010.9
20260510092003 53 0 0.0 0.0 0.00 0.00 0.00 93 1010.8
20260510091503 53 236 0.0 1.7 0.00 0.00 0.00 93 1010.7
20260510091024 52 230 0.0 1.7 0.00 0.00 0.00 94 1010.7
20260510090503 52 234 0.0 1.7 0.00 0.00 0.00 94 1010.7
20260510090003 52 237 0.0 1.7 0.00 0.00 0.00 94 1010.7
20260510085503 52 239 0.0 1.7 0.00 0.00 0.00 93 1010.8
20260510085003 52 244 0.0 1.7 0.00 0.00 0.00 93 1010.7
20260510084503 52 241 0.0 1.7 0.00 0.00 0.00 93 1010.8
20260510084003 52 244 0.0 1.7 0.00 0.00 0.00 93 1010.8
20260510083503 53 254 0.0 1.7 0.00 0.00 0.00 93 1010.8
20260510083003 53 256 0.0 1.7 0.00 0.00 0.00 93 1010.6
20260510082524 53 257 0.0 0.9 0.00 0.00 0.00 93 1010.6
20260510082003 53 256 0.0 0.9 0.00 0.00 0.00 93 1010.5
20260510081503 53 236 0.0 0.9 0.00 0.00 0.00 92 1010.3
20260510081003 53 202 0.0 0.9 0.00 0.00 0.00 92 1010.2
20260510080503 53 208 0.0 1.7 0.00 0.00 0.00 91 1010.2
20260510080003 53 215 0.0 1.7 0.00 0.00 0.00 91 1010.1
20260510075503 53 215 0.0 0.9 0.00 0.00 0.00 91 1010.2
20260510075003 53 0 0.0 0.0 0.00 0.00 0.00 91 1010.1
20260510074503 53 211 0.0 0.9 0.00 0.00 0.00 91 1010.1
20260510074003 53 211 0.0 0.9 0.00 0.00 0.00 91 1010.2
20260510073503 53 0 0.0 0.0 0.00 0.00 0.00 90 1010.2
20260510073003 54 0 0.0 0.0 0.00 0.00 0.00 89 1010.1
20260510072503 54 178 0.0 0.9 0.00 0.00 0.00 89 1010.1
20260510072024 54 190 0.0 1.7 0.00 0.00 0.00 88 1010.1
20260510071503 54 197 0.0 1.7 0.00 0.00 0.00 88 1010.1
20260510071024 55 207 0.0 1.7 0.00 0.00 0.00 88 1010.1
20260510070503 55 217 0.9 5.2 0.00 0.00 0.00 88 1010.1
20260510070024 55 222 0.9 5.2 0.00 0.00 0.00 88 1010.1
20260510065503 56 219 0.0 1.7 0.00 0.00 0.00 87 1010.1
20260510065003 56 212 0.9 2.6 0.00 0.00 0.00 86 1010.1
20260510064503 56 207 0.9 2.6 0.00 0.00 0.00 86 1010.1
20260510064003 56 204 0.9 2.6 0.00 0.00 0.00 86 1010.1
20260510063503 57 206 0.9 2.6 0.00 0.00 0.00 86 1010.1
20260510063003 57 207 0.9 3.5 0.00 0.00 0.00 85 1010.1
20260510062503 57 205 0.9 3.5 0.00 0.00 0.00 85 1010.2
20260510062024 58 209 0.9 2.6 0.00 0.00 0.00 85 1010.2
20260510061503 58 213 0.9 2.6 0.00 0.00 0.00 85 1010.2
20260510061003 58 210 0.9 2.6 0.00 0.00 0.00 85 1010.2
20260510060503 58 210 0.9 2.6 0.00 0.00 0.00 84 1010.2
20260510060024 58 215 0.9 3.5 0.00 0.00 0.00 84 1010.2
20260510055524 58 223 0.9 3.5 0.00 0.00 0.00 84 1010.2
20260510055003 58 215 0.9 2.6 0.00 0.00 0.00 84 1010.3
20260510054524 58 207 0.9 2.6 0.00 0.00 0.00 84 1010.3
20260510054003 58 221 0.9 1.7 0.00 0.00 0.00 83 1010.1
20260510053503 58 223 0.9 2.6 0.00 0.00 0.00 82 1010.2
20260510053003 58 219 0.9 2.6 0.00 0.00 0.00 82 1010.2
20260510052524 59 216 0.9 2.6 0.00 0.00 0.00 82 1010.1
20260510052003 59 219 0.9 5.2 0.00 0.00 0.00 82 1010.2
20260510051503 59 220 0.9 5.2 0.00 0.00 0.00 82 1010.2
20260510051003 59 218 0.9 4.3 0.00 0.00 0.00 81 1010.2
20260510050503 59 216 0.9 4.3 0.00 0.00 0.00 81 1010.2
20260510050003 59 216 0.9 3.5 0.00 0.00 0.00 81 1010.2
20260510045503 60 217 0.9 2.6 0.00 0.00 0.00 80 1010.2
20260510045024 60 209 0.9 2.6 0.00 0.00 0.00 80 1010.2
20260510044503 60 211 0.9 2.6 0.00 0.00 0.00 80 1010.3
20260510044003 60 213 1.7 4.3 0.00 0.00 0.00 79 1010.3
20260510043503 60 213 1.7 4.3 0.00 0.00 0.00 79 1010.3
20260510043003 60 215 1.7 3.5 0.00 0.00 0.00 79 1010.2
20260510042503 60 215 0.9 3.5 0.00 0.00 0.00 79 1010.2
20260510042024 60 216 0.9 4.3 0.00 0.00 0.00 79 1010.2
20260510041503 61 218 1.7 4.3 0.00 0.00 0.00 78 1010.3
20260510041003 61 210 1.7 3.5 0.00 0.00 0.00 79 1010.3
20260510040503 61 208 1.7 4.3 0.00 0.00 0.00 78 1010.3
20260510040003 61 216 1.7 4.3 0.00 0.00 0.00 79 1010.4
20260510035503 61 214 1.7 4.3 0.00 0.00 0.00 79 1010.4
20260510035024 61 209 1.7 4.3 0.00 0.00 0.00 79 1010.5
20260510034524 61 205 1.7 4.3 0.00 0.00 0.00 80 1010.5
20260510034003 60 207 1.7 3.5 0.00 0.00 0.00 80 1010.4
20260510033503 60 209 1.7 7.8 0.00 0.00 0.00 80 1010.5
20260510033003 60 205 1.7 7.8 0.00 0.00 0.00 81 1010.5
20260510032503 60 200 1.7 5.2 0.00 0.00 0.00 83 1010.4
20260510032003 59 202 1.7 5.2 0.00 0.00 0.00 84 1010.5
20260510031503 59 199 1.7 4.3 0.00 0.00 0.00 85 1010.3
20260510031003 58 195 0.9 3.5 0.00 0.00 0.00 86 1010.3
20260510030503 58 200 0.9 3.5 0.00 0.00 0.00 87 1010.3
20260510030003 58 199 0.9 5.2 0.00 0.00 0.00 87 1010.2
20260510025503 57 199 0.9 5.2 0.00 0.00 0.00 87 1010.2
20260510025003 58 202 0.9 3.5 0.00 0.00 0.00 87 1010.2
20260510024503 58 205 0.0 3.5 0.00 0.00 0.00 86 1010.1
20260510024003 58 188 0.0 0.9 0.00 0.00 0.00 84 1010.1
20260510023524 59 0 0.0 0.0 0.00 0.00 0.00 85 1010.1
20260510023003 59 0 0.0 0.0 0.00 0.00 0.00 83 1010.0
20260510022503 60 0 0.0 0.0 0.00 0.00 0.00 83 1009.9
20260510022003 60 0 0.0 0.0 0.00 0.00 0.00 82 1009.8
20260510021503 60 0 0.0 0.0 0.00 0.00 0.00 82 1009.7
20260510021003 61 0 0.0 0.0 0.00 0.00 0.00 81 1009.6
20260510020503 61 0 0.0 0.0 0.00 0.00 0.00 81 1009.4
20260510020003 62 179 0.0 0.9 0.00 0.00 0.00 79 1009.4
20260510015503 62 179 0.0 0.9 0.00 0.00 0.00 79 1009.2
20260510015024 62 173 0.0 0.9 0.00 0.00 0.00 78 1009.2
20260510014503 63 173 0.0 0.9 0.00 0.00 0.00 77 1009.0
20260510014003 63 180 0.0 0.9 0.00 0.00 0.00 75 1008.9
20260510013503 64 173 0.0 0.9 0.00 0.00 0.00 75 1008.8
20260510013003 64 168 0.0 0.9 0.00 0.00 0.00 74 1008.7
20260510012503 64 160 0.0 0.9 0.00 0.00 0.00 72 1008.7
20260510012024 65 162 0.0 0.9 0.00 0.00 0.00 72 1008.7
20260510011524 65 168 0.0 0.9 0.00 0.00 0.00 71 1008.6
20260510011003 66 171 0.0 1.7 0.00 0.00 0.00 70 1008.5
20260510010503 66 172 0.0 1.7 0.00 0.00 0.00 69 1008.5
20260510010003 66 171 0.0 2.6 0.00 0.00 0.00 68 1008.4
20260510005503 67 170 0.9 2.6 0.00 0.00 0.00 67 1008.4
20260510005024 67 176 0.9 3.5 0.00 0.00 0.00 67 1008.4
20260510004503 67 185 0.9 3.5 0.00 0.00 0.00 66 1008.3
20260510004003 68 190 0.9 3.5 0.00 0.00 0.00 66 1008.3
20260510003524 68 193 1.7 3.5 0.00 0.00 0.00 65 1008.3
20260510003003 68 199 1.7 4.3 0.00 0.00 0.00 65 1008.1
20260510002503 69 203 1.7 4.3 0.00 0.00 0.00 64 1008.1
20260510002003 69 198 1.7 6.1 0.00 0.00 0.00 64 1008.1
20260510001503 70 191 1.7 6.1 0.00 0.00 0.00 63 1008.0
20260510001003 70 188 1.7 6.1 0.00 0.00 0.00 62 1008.0
20260510000524 70 191 1.7 6.1 0.00 0.00 0.00 62 1008.0
20260510000003 70 190 1.7 6.1 0.00 0.00 0.00 61 1008.0
20260509235503 71 193 1.7 6.1 0.00 0.00 0.00 61 1007.9
20260509235003 71 195 1.7 7.0 0.00 0.00 0.00 61 1007.9
20260509234503 72 192 2.6 7.0 0.00 0.00 0.00 60 1007.8
20260509234003 72 197 1.7 7.0 0.00 0.00 0.00 60 1007.8
20260509233503 72 200 1.7 6.1 0.00 0.00 0.00 59 1007.7
20260509233003 73 201 2.6 9.6 0.00 0.00 0.00 59 1007.8
20260509232503 73 198 2.6 9.6 0.00 0.00 0.00 57 1007.7
20260509232003 73 194 2.6 7.0 0.00 0.00 0.00 57 1007.7
20260509231503 74 195 2.6 7.0 0.00 0.00 0.00 56 1007.7
20260509231003 74 200 2.6 7.0 0.00 0.00 0.00 56 1007.6
20260509230503 74 207 2.6 7.8 0.00 0.00 0.00 55 1007.5
20260509230003 74 210 2.6 7.8 0.00 0.00 0.00 56 1007.6
20260509225503 74 183 2.6 7.8 0.00 0.00 0.00 56 1007.6
20260509225003 74 176 2.6 7.8 0.00 0.00 0.00 55 1007.6
20260509224503 75 199 1.7 7.8 0.00 0.00 0.00 54 1007.6
20260509224004 75 205 2.6 8.7 0.00 0.00 0.00 55 1007.6
20260509223503 75 212 2.6 8.7 0.00 0.00 0.00 52 1007.6
20260509223003 75 214 1.7 6.1 0.00 0.00 0.00 52 1007.6
20260509222524 75 205 2.6 9.6 0.00 0.00 0.00 51 1007.6
20260509222024 76 205 2.6 9.6 0.00 0.00 0.00 51 1007.6
20260509221503 76 205 1.7 7.0 0.00 0.00 0.00 53 1007.6
20260509221003 76 217 2.6 7.8 0.00 0.00 0.00 55 1007.6
20260509220503 75 229 2.6 7.8 0.00 0.00 0.00 51 1007.5
20260509220003 76 229 2.6 6.1 0.00 0.00 0.00 51 1007.5
20260509215503 76 232 1.7 6.1 0.00 0.00 0.00 52 1007.5
20260509215003 75 240 3.5 10.4 0.00 0.00 0.00 50 1007.5
20260509214503 75 230 3.5 10.4 0.00 0.00 0.00 49 1007.5
20260509214024 75 218 3.5 8.7 0.00 0.00 0.00 49 1007.5
20260509213503 75 215 3.5 8.7 0.00 0.00 0.00 53 1007.6
20260509213003 75 204 2.6 8.7 0.00 0.00 0.00 54 1007.6
20260509212503 75 201 2.6 7.0 0.00 0.00 0.00 54 1007.7
20260509212003 75 220 2.6 7.0 0.00 0.00 0.00 54 1007.7
20260509211503 75 241 2.6 7.0 0.00 0.00 0.00 53 1007.7
20260509211003 75 250 2.6 7.0 0.00 0.00 0.00 54 1007.8
20260509210524 75 238 2.6 7.0 0.00 0.00 0.00 54 1007.7
20260509210003 75 219 2.6 7.0 0.00 0.00 0.00 56 1007.7
20260509205503 75 213 2.6 7.8 0.00 0.00 0.00 55 1007.7
20260509205003 75 201 2.6 8.7 0.00 0.00 0.00 58 1007.7
20260509204503 75 220 2.6 8.7 0.00 0.00 0.00 56 1007.8
20260509204003 75 236 2.6 7.8 0.00 0.00 0.00 55 1007.9
20260509203503 74 257 2.6 7.0 0.00 0.00 0.00 58 1007.9
20260509203003 74 246 3.5 11.3 0.00 0.00 0.00 59 1007.9
20260509202503 74 234 4.3 11.3 0.00 0.00 0.00 54 1008.0
20260509202024 74 224 3.5 11.3 0.00 0.00 0.00 57 1008.0
20260509201503 73 222 4.3 8.7 0.00 0.00 0.00 62 1007.8
20260509201003 73 220 4.3 9.6 0.00 0.00 0.00 60 1008.0
20260509200524 73 203 4.3 12.2 0.00 0.00 0.00 59 1008.0
20260509200003 73 200 3.5 12.2 0.00 0.00 0.00 61 1008.0
20260509195503 73 214 2.6 9.6 0.00 0.00 0.00 63 1008.1
20260509195003 74 206 2.6 9.6 0.00 0.00 0.00 60 1008.2
20260509194503 74 210 2.6 6.1 0.00 0.00 0.00 60 1008.3
20260509194003 74 220 2.6 7.0 0.00 0.00 0.00 63 1008.4
20260509193503 73 221 2.6 9.6 0.00 0.00 0.00 59 1008.3
20260509193003 73 239 2.6 9.6 0.00 0.00 0.00 60 1008.4
20260509192503 73 233 2.6 6.1 0.00 0.00 0.00 63 1008.4
20260509192024 73 228 2.6 6.1 0.00 0.00 0.00 62 1008.4
20260509191503 73 227 3.5 10.4 0.00 0.00 0.00 62 1008.4
20260509191003 72 225 4.3 10.4 0.00 0.00 0.00 61 1008.4
20260509190503 72 235 4.3 9.6 0.00 0.00 0.00 63 1008.5
20260509190003 72 226 3.5 9.6 0.00 0.00 0.00 63 1008.5
20260509185503 72 210 3.5 9.6 0.00 0.00 0.00 64 1008.4
20260509185003 72 230 3.5 9.6 0.00 0.00 0.00 64 1008.5
20260509184503 72 243 3.5 9.6 0.00 0.00 0.00 64 1008.5
20260509184024 72 234 3.5 10.4 0.00 0.00 0.00 67 1008.6
20260509183503 72 231 4.3 10.4 0.00 0.00 0.00 63 1008.5
20260509183003 71 225 4.3 10.4 0.00 0.00 0.00 62 1008.6
20260509182503 71 218 4.3 10.4 0.00 0.00 0.00 65 1008.5
20260509182024 71 221 3.5 10.4 0.00 0.00 0.00 66 1008.6
20260509181503 70 225 2.6 10.4 0.00 0.00 0.00 67 1008.6
20260509181003 70 218 2.6 7.8 0.00 0.00 0.00 65 1008.5
20260509180503 70 223 3.5 7.8 0.00 0.00 0.00 65 1008.5
20260509180003 70 224 3.5 8.7 0.00 0.00 0.00 71 1008.5
20260509175503 70 231 3.5 11.3 0.00 0.00 0.00 68 1008.4
20260509175003 70 237 3.5 11.3 0.00 0.00 0.00 69 1008.4
20260509174524 70 233 2.6 7.8 0.00 0.00 0.00 68 1008.3
20260509174003 70 233 3.5 11.3 0.00 0.00 0.00 70 1008.4
20260509173503 70 225 4.3 11.3 0.00 0.00 0.00 67 1008.6
20260509173003 70 237 3.5 10.4 0.00 0.00 0.00 66 1008.6
20260509172503 70 233 3.5 8.7 0.00 0.00 0.00 71 1008.6
20260509172024 70 215 2.6 9.6 0.00 0.00 0.00 67 1008.5
20260509171503 70 229 2.6 9.6 0.00 0.00 0.00 75 1008.5
20260509171024 69 219 3.5 8.7 0.00 0.00 0.00 71 1008.5
20260509170503 68 215 3.5 7.8 0.00 0.00 0.00 71 1008.4
20260509170003 68 226 3.5 8.7 0.00 0.00 0.00 71 1008.4
20260509165503 68 217 4.3 9.6 0.00 0.00 0.00 73 1008.4
20260509165003 68 198 3.5 10.4 0.00 0.00 0.00 71 1008.4
20260509164503 68 198 3.5 10.4 0.00 0.00 0.00 71 1008.4
20260509164003 67 219 3.5 8.7 0.00 0.00 0.00 71 1008.4
20260509163503 67 221 3.5 8.7 0.00 0.00 0.00 71 1008.5
20260509163003 67 215 2.6 8.7 0.00 0.00 0.00 73 1008.4
20260509162524 67 226 3.5 10.4 0.00 0.00 0.00 75 1008.4
20260509162003 66 218 3.5 10.4 0.00 0.00 0.00 72 1008.5
20260509161503 67 211 3.5 10.4 0.00 0.00 0.00 73 1008.5
20260509161024 66 210 3.5 10.4 0.00 0.00 0.00 73 1008.4
20260509160503 66 215 2.6 8.7 0.00 0.00 0.00 72 1008.4
20260509160003 67 216 2.6 8.7 0.00 0.00 0.00 72 1008.4
20260509155503 67 208 2.6 7.8 0.00 0.00 0.00 74 1008.4
20260509155003 66 220 2.6 7.8 0.00 0.00 0.00 73 1008.4
20260509154503 66 230 2.6 7.0 0.00 0.00 0.00 74 1008.4
20260509154003 65 228 2.6 7.0 0.00 0.00 0.00 74 1008.5
20260509153524 65 226 3.5 7.8 0.00 0.00 0.00 73 1008.4
20260509153003 65 221 3.5 7.8 0.00 0.00 0.00 72 1008.5
20260509152503 64 215 3.5 8.7 0.00 0.00 0.00 74 1008.5
20260509152003 64 225 3.5 10.4 0.00 0.00 0.00 76 1008.5
20260509151503 64 226 3.5 10.4 0.00 0.00 0.00 76 1008.4
20260509151003 63 216 2.6 7.0 0.00 0.00 0.00 78 1008.3
20260509150503 62 224 2.6 7.0 0.00 0.00 0.00 77 1008.3
20260509150024 62 222 2.6 7.8 0.00 0.00 0.00 78 1008.4
20260509145524 61 217 2.6 7.8 0.00 0.00 0.00 78 1008.3
20260509145024 61 219 2.6 7.8 0.00 0.00 0.00 78 1008.3
20260509144503 61 224 2.6 7.8 0.00 0.00 0.00 80 1008.3
20260509144003 61 225 3.5 9.6 0.00 0.00 0.00 78 1008.3
20260509143503 61 220 4.3 9.6 0.00 0.00 0.00 78 1008.4
20260509143003 61 215 4.3 11.3 0.00 0.00 0.00 77 1008.4
20260509142503 61 216 3.5 11.3 0.00 0.00 0.00 76 1008.4
20260509142003 61 217 3.5 9.6 0.00 0.00 0.00 78 1008.5
20260509141503 61 222 3.5 9.6 0.00 0.00 0.00 78 1008.4
20260509141003 60 223 3.5 7.8 0.00 0.00 0.00 78 1008.5
20260509140524 60 219 3.5 7.0 0.00 0.00 0.00 80 1008.4
20260509140024 60 213 2.6 7.0 0.00 0.00 0.00 81 1008.4
20260509135503 59 215 2.6 6.1 0.00 0.00 0.00 82 1008.4
20260509135003 59 212 1.7 6.1 0.00 0.00 0.00 81 1008.3
20260509134503 59 212 0.9 4.3 0.00 0.00 0.00 81 1008.4
20260509134003 58 218 0.9 3.5 0.00 0.00 0.00 83 1008.4
20260509133503 58 213 0.9 2.6 0.00 0.00 0.00 83 1008.3
20260509133024 57 207 0.9 2.6 0.00 0.00 0.00 83 1008.2
20260509132503 57 215 0.9 2.6 0.00 0.00 0.00 85 1008.1
20260509132024 56 221 0.0 2.6 0.00 0.00 0.00 88 1008.0
20260509131503 56 250 0.0 0.9 0.00 0.00 0.00 87 1008.0
20260509131003 56 0 0.0 0.0 0.00 0.00 0.00 87 1008.0
20260509130503 55 0 0.0 0.0 0.00 0.00 0.00 87 1008.0
20260509130024 55 260 0.0 1.7 0.00 0.00 0.00 87 1007.9
20260509125524 55 290 0.0 1.7 0.00 0.00 0.00 87 1008.1
20260509125003 55 24 0.0 1.7 0.00 0.00 0.00 86 1007.9
20260509124503 54 55 0.9 1.7 0.00 0.00 0.00 87 1007.9
20260509124003 54 108 0.0 1.7 0.00 0.00 0.00 86 1007.9
20260509123503 54 0 0.0 0.0 0.00 0.00 0.00 85 1008.2
20260509123003 54 138 0.0 0.9 0.00 0.00 0.00 85 1008.1
20260509122503 54 148 0.0 1.7 0.00 0.00 0.00 84 1008.1
20260509122003 54 160 0.9 1.7 0.00 0.00 0.00 85 1007.8
20260509121524 54 174 0.9 2.6 0.00 0.00 0.00 85 1007.9
20260509121003 54 31 1.7 6.1 0.00 0.00 0.00 84 1007.6
20260509120503 54 32 2.6 6.1 0.00 0.00 0.00 84 1007.2
20260509120003 54 38 1.7 4.3 0.00 0.00 0.00 85 1007.1
20260509115524 54 31 0.9 2.6 0.00 0.00 0.00 86 1007.2
20260509115003 54 5 1.7 4.3 0.00 0.00 0.00 84 1007.8
20260509114503 53 358 1.7 4.3 0.00 0.00 0.00 86 1007.6
20260509114003 53 336 1.7 2.6 0.00 0.00 0.00 87 1007.7
20260509113503 53 330 0.9 2.6 0.00 0.00 0.00 88 1007.6
20260509113024 53 216 0.0 1.7 0.00 0.00 0.00 89 1007.4
20260509112503 53 166 0.0 1.7 0.00 0.00 0.00 90 1007.4
20260509112003 53 171 0.0 1.7 0.00 0.00 0.00 88 1007.4
20260509111503 53 248 0.0 0.9 0.00 0.00 0.00 88 1007.5
20260509111003 53 248 0.0 0.9 0.00 0.00 0.00 88 1007.5
20260509110524 53 248 0.0 0.9 0.00 0.00 0.00 87 1007.5
20260509110024 53 248 0.0 0.9 0.00 0.00 0.00 88 1007.6
20260509105503 53 256 0.0 1.7 0.00 0.00 0.00 87 1007.6
20260509105003 53 254 0.0 1.7 0.00 0.00 0.00 85 1007.6
20260509104503 53 248 0.0 0.9 0.00 0.00 0.00 85 1007.5
20260509104003 53 248 0.0 0.9 0.00 0.00 0.00 85 1007.5
20260509103503 54 246 0.0 1.7 0.00 0.00 0.00 85 1007.5
20260509103003 54 245 0.0 1.7 0.00 0.00 0.00 86 1007.6
20260509102503 54 241 0.0 0.9 0.00 0.00 0.00 84 1007.6
20260509102003 54 241 0.0 0.9 0.00 0.00 0.00 84 1007.5